Weather History for KBWP - October, 2013

Change the Weather History Date:

Sunday, October 13, 2013

  Actual Average (KFFM) Record (KFFM)
Temperature  
Mean Temperature 42 °F -  
Max Temperature 51 °F 56 °F 80 °F (1956)
Min Temperature 32 °F 36 °F 16 °F (1986)
Degree Days  
Heating Degree Days 24    
Moisture  
Dew Point 34 °F    
Average Humidity 81    
Maximum Humidity 100    
Minimum Humidity 54    
Precipitation  
Precipitation 0.00 in - - ()
Sea Level Pressure  
Sea Level Pressure 30.31 in    
Wind  
Wind Speed 4 mph (WSW)    
Max Wind Speed 8 mph    
Max Gust Speed -    
Visibility 10 miles    
Events      
Averages and records for this station are not official NWS values.
T = Trace of Precipitation, MM = Missing Value Source: NWS Daily Summary

Daily Weather History Graph

Daily Weather History Graph

Search for Another Location

Airport or City:

Trip Planner

Search our weather history database for the weather conditions in past years. The results will help you decide how hot, cold, wet, or windy it might be!

Date:

Astronomy

Oct. 13, 2013 Rise Set
Actual Time 7:41 AM CDT 6:43 PM CDT
Civil Twilight 7:11 AM CDT 7:13 PM CDT
Nautical Twilight 6:36 AM CDT 7:48 PM CDT
Astronomical Twilight 6:01 AM CDT 8:22 PM CDT
Moon 3:51 PM CDT (10/13) 1:34 AM CDT (10/13)
Length of Visible Light 12h 02m
Length of Day
11h 01m
Waxing Gibbous, 69% of the Moon is Illuminated
Oct 13
Waxing Gibbous
Oct 18
Full
Oct 26
Last Quarter
Nov 3
New
Nov 9
First Quarter

Hourly Weather History & Observations

Time (CDT) Temp. Windchill Dew Point Humidity Pressure Visibility Wind Dir Wind Speed Gust Speed Precip Events Conditions
12:15 AM 33.8 °F 28.6 °F 32.0 °F 93% 30.21 in 10.0 mi West 5.8 mph - N/A   Clear
12:35 AM 35.6 °F 31.7 °F 32.0 °F 87% 30.21 in 10.0 mi West 4.6 mph - N/A   Clear
12:55 AM 35.6 °F 31.7 °F 32.0 °F 87% 30.22 in 10.0 mi West 4.6 mph - N/A   Clear
1:15 AM 33.8 °F 29.6 °F 32.0 °F 93% 30.23 in 10.0 mi West 4.6 mph - N/A   Clear
1:35 AM 33.8 °F 29.6 °F 32.0 °F 93% 30.23 in 10.0 mi West 4.6 mph - N/A   Clear
1:55 AM 33.8 °F 27.0 °F 32.0 °F 93% 30.24 in 10.0 mi West 8.1 mph - N/A   Clear
2:15 AM 35.6 °F 30.7 °F 32.0 °F 87% 30.25 in 10.0 mi West 5.8 mph - N/A   Clear
2:35 AM 35.6 °F 30.7 °F 32.0 °F 87% 30.26 in 10.0 mi West 5.8 mph - N/A   Clear
2:55 AM 35.6 °F 30.7 °F 32.0 °F 87% 30.27 in 10.0 mi West 5.8 mph - N/A   Clear
3:15 AM 35.6 °F 30.7 °F 32.0 °F 87% 30.28 in 10.0 mi West 5.8 mph - N/A   Clear
3:35 AM 33.8 °F 29.6 °F 32.0 °F 93% 30.28 in 10.0 mi West 4.6 mph - N/A   Clear
3:55 AM 33.8 °F 29.6 °F 32.0 °F 93% 30.29 in 10.0 mi West 4.6 mph - N/A   Clear
4:15 AM 33.8 °F 29.6 °F 32.0 °F 93% 30.30 in 10.0 mi West 4.6 mph - N/A   Clear
4:35 AM 33.8 °F - 32.0 °F 93% 30.31 in 10.0 mi Calm Calm - N/A   Clear
4:55 AM 33.8 °F - 32.0 °F 93% 30.31 in 10.0 mi Calm Calm - N/A   Clear
5:15 AM 35.6 °F 30.7 °F 32.0 °F 87% 30.31 in 10.0 mi WNW 5.8 mph - N/A   Clear
5:35 AM 33.8 °F - 32.0 °F 93% 30.31 in 10.0 mi Calm Calm - N/A   Clear
5:55 AM 33.8 °F 30.8 °F 32.0 °F 93% 30.32 in 10.0 mi West 3.5 mph - N/A   Clear
6:15 AM 32.0 °F 28.7 °F 32.0 °F 100% 30.32 in 10.0 mi West 3.5 mph - N/A   Clear
6:35 AM 33.8 °F 30.8 °F 32.0 °F 93% 30.33 in 10.0 mi West 3.5 mph - N/A   Clear
6:55 AM 32.0 °F 28.7 °F 32.0 °F 100% 30.34 in 10.0 mi West 3.5 mph - N/A   Clear
7:15 AM 32.0 °F 28.7 °F 30.2 °F 93% 30.35 in 10.0 mi WSW 3.5 mph - N/A   Clear
7:35 AM 32.0 °F - 32.0 °F 100% 30.36 in 10.0 mi Calm Calm - N/A   Clear
6:35 PM 51.8 °F - 37.4 °F 58% 30.33 in 10.0 mi SE 4.6 mph - N/A   Overcast
6:55 PM 51.8 °F - 35.6 °F 54% 30.33 in 10.0 mi SE 3.5 mph - N/A   Mostly Cloudy
7:15 PM 50.0 °F - 33.8 °F 54% 30.33 in 10.0 mi ESE 3.5 mph - N/A   Mostly Cloudy
7:35 PM 50.0 °F - 35.6 °F 58% 30.34 in 10.0 mi SE 3.5 mph - N/A   Overcast
7:55 PM 50.0 °F - 35.6 °F 58% 30.33 in 10.0 mi East 3.5 mph - N/A   Scattered Clouds
8:15 PM 48.2 °F - 35.6 °F 62% 30.33 in 10.0 mi ESE 3.5 mph - N/A   Clear
8:35 PM 48.2 °F - 35.6 °F 62% 30.33 in 10.0 mi ESE 5.8 mph - N/A   Clear
8:55 PM 48.2 °F - 35.6 °F 62% 30.33 in 10.0 mi Calm Calm - N/A   Scattered Clouds
9:15 PM 48.2 °F - 37.4 °F 66% 30.34 in 10.0 mi East 3.5 mph - N/A   Scattered Clouds
9:35 PM 46.4 °F 44.3 °F 37.4 °F 71% 30.34 in 10.0 mi East 4.6 mph - N/A   Scattered Clouds
9:55 PM 46.4 °F - 37.4 °F 71% 30.34 in 10.0 mi Calm Calm - N/A   Clear
10:15 PM 46.4 °F 45.2 °F 37.4 °F 71% 30.35 in 10.0 mi ESE 3.5 mph - N/A   Scattered Clouds
10:35 PM 46.4 °F 45.2 °F 35.6 °F 66% 30.35 in 10.0 mi ESE 3.5 mph - N/A   Mostly Cloudy
10:55 PM 46.4 °F 45.2 °F 37.4 °F 71% 30.35 in 10.0 mi East 3.5 mph - N/A   Overcast
11:15 PM 46.4 °F 45.2 °F 37.4 °F 71% 30.35 in 10.0 mi East 3.5 mph - N/A   Overcast
11:35 PM 44.6 °F 42.2 °F 37.4 °F 76% 30.35 in 10.0 mi East 4.6 mph - N/A   Overcast
11:55 PM 46.4 °F 43.5 °F 37.4 °F 71% 30.35 in 10.0 mi East 5.8 mph - N/A   Overcast